Weather History for KACJ - March, 2013

Change the Weather History Date:

Tuesday, March 5, 2013

  Actual Average (KABY) Record (KABY)
Temperature  
Mean Temperature 56 °F 57 °F  
Max Temperature 71 °F 69 °F 86 °F (1945)
Min Temperature 42 °F 44 °F 20 °F (1980)
Degree Days  
Heating Degree Days 8 9  
Month to date heating degree days 48  
Since 1 July heating degree days 1608  
Cooling Degree Days 0 1  
Month to date cooling degree days 5  
Year to date cooling degree days 14  
Growing Degree Days 6 (Base 50)    
Moisture  
Dew Point 46 °F    
Average Humidity 72    
Maximum Humidity 100    
Minimum Humidity 53    
Precipitation  
Precipitation 0.00 in - 0.40 in (2015)
Sea Level Pressure  
Sea Level Pressure 30.00 in    
Wind  
Wind Speed 7 mph (SW)    
Max Wind Speed 21 mph    
Max Gust Speed 34 mph    
Visibility 10 miles    
Events Rain , Thunderstorm    
T = Trace of Precipitation, MM = Missing Value Source: NWS Daily Summary

Daily Weather History Graph

Daily Weather History Graph

Search for Another Location

Airport or City:

Trip Planner

Search our weather history database for the weather conditions in past years. The results will help you decide how hot, cold, wet, or windy it might be!

Date:

Astronomy

Mar. 05, 2013 Rise Set
Actual Time 6:59 AM EST 6:37 PM EST
Civil Twilight 6:34 AM EST 7:02 PM EST
Nautical Twilight 6:06 AM EST 7:30 PM EST
Astronomical Twilight 5:37 AM EST 7:58 PM EST
Moon 1:55 AM EST (3/5) 12:31 PM EST (3/5)
Length of Visible Light 12h 27m
Length of Day
11h 38m
Last Quarter, 41% of the Moon is Illuminated
Mar 5
Last Quarter
Mar 11
New
Mar 19
First Quarter
Mar 27
Full
Apr 3
Last Quarter

Hourly Weather History & Observations

Time (EST) Temp. Windchill Dew Point Humidity Pressure Visibility Wind Dir Wind Speed Gust Speed Precip Events Conditions
12:15 AM 51.8 °F - 35.6 °F 54% 30.10 in 10.0 mi SW 3.5 mph - N/A   Clear
12:35 AM 50.0 °F - 35.6 °F 58% 30.10 in 10.0 mi SSW 3.5 mph - N/A   Clear
12:55 AM 50.0 °F - 35.6 °F 58% 30.10 in 10.0 mi South 3.5 mph - N/A   Clear
1:35 AM 50.0 °F - 37.4 °F 62% 30.09 in 10.0 mi South 3.5 mph - N/A   Clear
1:55 AM 50.0 °F - 37.4 °F 62% 30.10 in 10.0 mi Calm Calm - N/A   Clear
2:15 AM 48.2 °F - 37.4 °F 66% 30.09 in 10.0 mi Calm Calm - N/A   Clear
2:35 AM 48.2 °F - 37.4 °F 66% 30.10 in 10.0 mi Calm Calm - N/A   Scattered Clouds
2:55 AM 48.2 °F - 37.4 °F 66% 30.10 in 10.0 mi Calm Calm - N/A   Mostly Cloudy
3:15 AM 50.0 °F - 37.4 °F 62% 30.10 in 10.0 mi Calm Calm - N/A   Overcast
3:35 AM 50.0 °F - 37.4 °F 62% 30.10 in 10.0 mi SSW 3.5 mph - N/A   Overcast
3:55 AM 50.0 °F - 37.4 °F 62% 30.10 in 10.0 mi Calm Calm - N/A   Overcast
4:15 AM 50.0 °F - 39.2 °F 66% 30.10 in 10.0 mi SSW 4.6 mph - N/A   Overcast
4:35 AM 50.0 °F - 39.2 °F 66% 30.10 in 10.0 mi SW 3.5 mph - N/A   Overcast
4:55 AM 50.0 °F - 39.2 °F 66% 30.10 in 10.0 mi Calm Calm - N/A   Overcast
5:35 AM 48.2 °F - 41.0 °F 76% 30.10 in 10.0 mi SSW 3.5 mph - N/A   Overcast
5:55 AM 48.2 °F - 41.0 °F 76% 30.10 in 10.0 mi South 3.5 mph - N/A   Overcast
6:15 AM 48.2 °F - 41.0 °F 76% 30.10 in 10.0 mi South 4.6 mph - N/A   Overcast
6:35 AM 48.2 °F - 41.0 °F 76% 30.10 in 10.0 mi SSW 4.6 mph - N/A   Overcast
6:55 AM 50.0 °F - 42.8 °F 76% 30.09 in 10.0 mi SSW 5.8 mph - N/A   Overcast
7:15 AM 50.0 °F - 42.8 °F 76% 30.08 in 10.0 mi SSW 5.8 mph - N/A   Mostly Cloudy
7:55 AM 50.0 °F - 42.8 °F 76% 30.10 in 10.0 mi SSW 4.6 mph - N/A   Overcast
8:15 AM 50.0 °F - 42.8 °F 76% 30.09 in 10.0 mi SSW 4.6 mph - N/A   Overcast
8:35 AM 50.0 °F - 44.6 °F 82% 30.10 in 10.0 mi SW 4.6 mph - N/A   Overcast
8:55 AM 50.0 °F - 44.6 °F 82% 30.10 in 10.0 mi SSW 6.9 mph - N/A   Overcast
9:15 AM 50.0 °F - 46.4 °F 87% 30.09 in 10.0 mi SSW 8.1 mph - N/A   Overcast
9:35 AM 51.8 °F - 46.4 °F 82% 30.08 in 10.0 mi SSW 6.9 mph - N/A   Overcast
9:55 AM 51.8 °F - 48.2 °F 88% 30.07 in 10.0 mi SSW 9.2 mph - N/A   Overcast
10:15 AM 53.6 °F - 50.0 °F 88% 30.07 in 10.0 mi SSW 6.9 mph - N/A   Overcast
10:35 AM 53.6 °F - 50.0 °F 88% 30.06 in 10.0 mi SSW 3.5 mph - N/A   Overcast
10:55 AM 55.4 °F - 50.0 °F 82% 30.07 in 10.0 mi WSW 12.7 mph 18.4 mph N/A   Overcast
11:15 AM 57.2 °F - 51.8 °F 82% 30.06 in 10.0 mi SW 9.2 mph - N/A   Overcast
11:35 AM 55.4 °F - 51.8 °F 88% 30.05 in 7.0 mi SW 6.9 mph 16.1 mph N/A Rain Light Rain
11:55 AM 57.2 °F - 51.8 °F 82% 30.04 in 10.0 mi SW 9.2 mph 18.4 mph N/A Rain Light Rain
12:15 PM 60.8 °F - 53.6 °F 77% 30.00 in 10.0 mi SW 11.5 mph - N/A   Overcast
12:35 PM 62.6 °F - 53.6 °F 72% 30.01 in 10.0 mi SSW 10.4 mph 19.6 mph N/A   Overcast
12:55 PM 64.4 °F - 55.4 °F 73% 30.00 in 10.0 mi SSW 13.8 mph 17.3 mph N/A   Overcast
1:15 PM 64.4 °F - 55.4 °F 73% 29.98 in 10.0 mi WSW 13.8 mph 21.9 mph N/A   Overcast
1:55 PM 64.4 °F - 55.4 °F 73% 29.95 in 10.0 mi SW 10.4 mph 19.6 mph N/A   Overcast
2:15 PM 68.0 °F - 55.4 °F 64% 29.92 in 10.0 mi SSW 10.4 mph 18.4 mph N/A   Mostly Cloudy
2:35 PM 68.0 °F - 55.4 °F 64% 29.90 in 10.0 mi WSW 15.0 mph 26.5 mph N/A   Overcast
2:55 PM 69.8 °F - 55.4 °F 60% 29.89 in 10.0 mi SW 18.4 mph 28.8 mph N/A   Overcast
3:15 PM 69.8 °F - 55.4 °F 60% 29.88 in 10.0 mi SW 19.6 mph 29.9 mph N/A   Overcast
3:35 PM 69.8 °F - 55.4 °F 60% 29.87 in 10.0 mi SW 15.0 mph 23.0 mph N/A   Overcast
3:55 PM 68.0 °F - 57.2 °F 68% 29.86 in 10.0 mi SW 12.7 mph 20.7 mph N/A Rain Light Rain
4:15 PM 69.8 °F - 57.2 °F 64% 29.84 in 10.0 mi SSW 13.8 mph 24.2 mph N/A   Overcast
4:35 PM 69.8 °F - 55.4 °F 60% 29.84 in 10.0 mi SW 12.7 mph 19.6 mph N/A   Overcast
4:55 PM 71.6 °F - 55.4 °F 57% 29.80 in 10.0 mi SW 16.1 mph 26.5 mph N/A   Mostly Cloudy
5:15 PM 71.6 °F - 53.6 °F 53% 29.80 in 10.0 mi SW 20.7 mph 27.6 mph N/A   Scattered Clouds
5:35 PM 69.8 °F - 51.8 °F 53% 29.80 in 10.0 mi SW 17.3 mph 31.1 mph N/A   Mostly Cloudy
5:55 PM 69.8 °F - 53.6 °F 56% 29.81 in 10.0 mi SW 17.3 mph 28.8 mph N/A   Mostly Cloudy
6:15 PM 69.8 °F - 53.6 °F 56% 29.82 in 10.0 mi WSW 17.3 mph 25.3 mph N/A Thunderstorm Overcast
6:35 PM 68.0 °F - 53.6 °F 60% 29.85 in 10.0 mi West 15.0 mph 24.2 mph N/A Rain Light Rain
6:55 PM 59.0 °F - 59.0 °F 100% 29.90 in 5.0 mi WNW 16.1 mph 28.8 mph N/A Rain Heavy Rain
7:15 PM 59.0 °F - 55.4 °F 88% 29.90 in 10.0 mi West 18.4 mph 28.8 mph N/A Rain Light Rain
7:35 PM 57.2 °F - 51.8 °F 82% 29.90 in 10.0 mi West 17.3 mph 20.7 mph N/A   Overcast
7:55 PM 57.2 °F - 51.8 °F 82% 29.90 in 10.0 mi West 17.3 mph 21.9 mph N/A   Mostly Cloudy
8:15 PM 55.4 °F - 51.8 °F 88% 29.90 in 10.0 mi West 15.0 mph 21.9 mph N/A   Scattered Clouds
8:35 PM 55.4 °F - 50.0 °F 82% 29.91 in 10.0 mi WNW 16.1 mph 34.5 mph N/A   Mostly Cloudy
8:55 PM 53.6 °F - 50.0 °F 88% 29.92 in 10.0 mi WNW 13.8 mph 24.2 mph N/A   Overcast
9:15 PM 53.6 °F - 46.4 °F 77% 29.94 in 10.0 mi WNW 18.4 mph 27.6 mph N/A   Mostly Cloudy
9:35 PM 51.8 °F - 44.6 °F 76% 29.95 in 10.0 mi WNW 16.1 mph 23.0 mph N/A   Mostly Cloudy
9:55 PM 50.0 °F - 42.8 °F 76% 29.97 in 10.0 mi NW 18.4 mph 25.3 mph N/A   Mostly Cloudy
10:15 PM 48.2 °F - 41.0 °F 76% 29.98 in 10.0 mi WNW 12.7 mph - N/A   Scattered Clouds
10:35 PM 46.4 °F 40.1 °F 41.0 °F 81% 29.99 in 10.0 mi WNW 15.0 mph 19.6 mph N/A   Scattered Clouds
10:55 PM 46.4 °F 39.2 °F 35.6 °F 66% 30.01 in 10.0 mi NW 18.4 mph 28.8 mph N/A   Scattered Clouds
11:15 PM 44.6 °F 38.1 °F 33.8 °F 66% 30.02 in 10.0 mi NW 13.8 mph 26.5 mph N/A   Clear
11:35 PM 42.8 °F 34.8 °F 33.8 °F 70% 30.03 in 10.0 mi NW 17.3 mph 28.8 mph N/A   Clear
11:55 PM 42.8 °F 34.8 °F 32.0 °F 66% 30.03 in 10.0 mi NW 17.3 mph 25.3 mph N/A   Clear